"Pseudo-MPEC" for P10hyGI

Created 2015 Jan 26 19:32:15 UT using Find_Orb

Astrometry:
     P10hyGI  C2015 01 14N,Astrometrye!@cRo7l\DTNg(we^p^-EW[hhP[Yi0?Te_q=.cdjF51
     P10hyGI  C2015 01 14asN!p:_@Rl?/M.wXC0G-OVMhMjwj.AR'n(dtA+L3J\:23r0Dt=M*F51
     P10hyGI  C2015 01 16j15mwhTX]4:!/[`[Heqcw+5a)cY0m#%ls[j5y#=2xaHGsdWXS?a=F51
     P10hyGI  C2015 01 16xLd!RiHL$8Bm:Aq1u)06+1%Ot](9yEkKdF#Sn)X`KKUFvfBZP2e;F51
     P10hyGI  C2015 01 16ODj#\sp[ra`\a=j0GJL'YM$FI^P[#ldH6g*/]?\x%:BbJCdNJF.wF51
     P10hyGI KC2015 01 17J.b^[e*FgAgq*Kjf#o+=lGAi2p9XXj\fjDJc/QPmZrGGvp,mbSi,291
     P10hyGI KC2015 01 17?9yQqj3]41anOptZB6[:]\jTh^puMofF7F4t4y5)N,W.`yyA:\W*291
     P10hyGI KC2015 01 176yB-uIcji?je$TTXj],Pno6nn2bPiFAii(8Eb(eRbP1=*i-AO76D291
     P10hyGI _C2015 01 17M^l9Fw)lL5j(ERd0^L;oiy^PA4g12oI%.ok;t=Qta3s9w*xIyGmx568
     P10hyGI _C2015 01 17,Cste*,4Sevgh;_I5redacted;G\/:Ym8\l`OjFMd@lHVl23D*O*568
     P10hyGI _C2015 01 17S+i'EN89@RheRo)La+RA;xxNfBX;f31/o12C#KdUm)-c2Y$qe3dx568
     P10hyGI KC2015 01 19aPtsE!_2fo'Q[KT`icSrJp^]O/IOBg']q!1pVp(C?0NT5):$FHPqH21
     P10hyGI KC2015 01 19hTGwWvtD#1oYBe5mHXf2aAGj5%j]/aVQ#(MTr14Aj0-#U8jAy1hCH21
     P10hyGI KC2015 01 19FG4^VO:aEqisKFk]42'DsaH(8IS#kQ#8?aHnU/:My3REXiYDqWX%H21
     P10hyGI _C2015 01 192qJ@NoqR.6mV*#@x*s1\iLQhw.,/h`B_db4Z3@h#gx-jr,tkq1/;568
     P10hyGI _C2015 01 19]:)ZIii7OeP:'tn8qn%JgeyX\0BQG\Z[_I$PyD'mKEg@^]kQpB5A568
     P10hyGI 5C2015 01 20wL+?#RU^g;alk`6rS;rt50W'(/QJ'Al$mQwJ^SbKHJq90af#8llHU69
     P10hyGI 5C2015 01 20JMP3%:FsmxJq\WZa%*Ysn@_fwwYDy]q)pP)dP*7w\bor?OYyYlr'U69
     P10hyGI 2C2015 01 21gWnd.Mba0ZjZdsx;W689Ra1K6EJI7BQ$SyC;L+6?lJ*@yw87kDSV568
     P10hyGI 2C2015 01 21pi!@mm=xqpw:fIh9?[cIU?RXnwVGTLj/seeG]d[N4XB[BCtbX7e3568
     P10hyGI KC2015 01 23Wh?i\=y]KLMZM177Fe%%-Z:*#il5Z1HkSg4i*4L/`Tj3e[$eF]D-291
     P10hyGI KC2015 01 23=_7tN]/bI1TyhF]Lm7OEr-1rkUYbnq7v._W294e[ZH^`og,*fX7Q291
     P10hyGI KC2015 01 23*(-dEU5\RC\7!n*5YeI\#/Q$P8b=JyHU\Us'e.==+y.,Hlu[WDq5291
     P10hyGI 2C2015 01 23.#m^;UUeT$tj3GKxUhoaB#GjoC%'AQpOTchoC4L!c=i0hg@W7[Sn568
     P10hyGI 2C2015 01 23(w%EGSov-XdVvbEc.?Rbt8s1sLYIw[%v(3k%@ICQy+vI*uU]);0n568
     P10hyGI  C2015 01 24h\Nj_KeH.x9gr=1#pyrs]nO`+XUMCR!hlLnWN/hD[+U_!%^NyBBNH01
     P10hyGI  C2015 01 24\'`7w34*hvop-CM1qwp\L+A^=vfy#MjU:$_][5RQBuX^a)51cL]IH01
     P10hyGI  C2015 01 24G]-dYt=7!-F;e_xFt*RdTAnCRWo6MhZ-bwxc^DXJ)1p#;sug'[$IH01
     P10hyGI  C2015 01 24lt_Mj2;KsWHqta;R1x=[U38N.%/%:4N,b33,yNWM_ZDYA:fNEOCPH01

Station data:
(291) LPL/Spacewatch II (N31.9617 W111.5991)  US/Arizona.  1.8-m f/2.7
    reflector.
(568) Mauna Kea (N19.8262 W155.4722)  US/Hawaii.   Observer D. J. Tholen.
    2.24-m University of Hawaii reflector.
(F51) Pan-STARRS 1, Haleakala (N20.70733 W156.25591)  US/Hawaii.   Observers
    N. Primak, A. Schultz, S. Watters, J. Thiel, T. Goggia.  Measurer PS1
    Science Consortium.  1.8-m Ritchey-Chretien + CCD.
(H01) Magdalena Ridge Observatory, Socorro (N33.9853 W107.1892)  US/New Mexico.
      Observers W. H. Ryan, E. V. Ryan.  Measurer W. H. Ryan.  2.4-m f/8.9
    reflector + CCD.
(H21) Astronomical Research Observatory, Westfield (N39.48311 W87.96827)  US/Illinois.
(U69) iTelescope SRO Observatory, Auberry (N37.0705 W119.4130)  US/California.

Orbital elements:  P10hyGI
   Perihelion 2016 Feb 7.816577 +/- 32.4 TT = 19:35:52 (JD 2457426.316577)
Epoch 2015 Jan 20.0 TT = JDT 2457042.5   Ju: 0.3276           Find_Orb
M 326.38353 +/- 7
n   0.08758470 +/- 0.0098           Peri.  259.48865 +/- 7
a   5.02169719 +/- 0.375            Node   307.32026 +/- 0.15
e   0.3719829 +/- 0.0183            Incl.  162.93842 +/- 0.23
P  11.25                   H 16.1   G  0.15   U  9.7  
q 3.15371140 +/- 0.118    Q 6.88968297 +/- 0.498
From 29 observations 2015 Jan. 14-24; mean residual 0".175

Residuals in arcseconds:
150114 F51 .197- .125+    150117 568 .078+ .033-    150123 291 .147- .364-    
150114 F51 .067+ .156-    150119 H21 .086+ .194-    150123 291 .083+ .396+    
150116 F51 .094+ .008+    150119 H21 .192- .244-    150123 291 .385- .054+    
150116 F51 .058+ .116-    150119 H21 .330- .285+    150123 568 .045+ .002+    
150116 F51 .017+ .067-    150119 568 .120+ .036-    150123 568 .002- .001-    
150117 291 .044- .027+    150119 568 .191+ .038-    150124 H01 .107- .039-    
150117 291 .426+ .041-    150120 U69 .140+ .305+    150124 H01 .064- .089-    
150117 291 .483- .287+    150120 U69 .298+ .150+    150124 H01 .078- .012-    
150117 568 .053+ .019-    150121 568 .013- .001-    150124 H01 .153- .069-    
150117 568 .055+ .020-    150121 568 .017- .006-    

Ephemerides (geocentric):
Date (UT)    RA              Dec         delta   r     elong  mag " sig PA
---- -- --  ------------   ------------  ------ ------ -----  --- ---- ---
2015 01 27  07 35 45.146   +17 05 52.49  2.8372 3.7991 165.7 21.6  0.3  59
2015 01 28  07 33 32.377   +17 08 05.03  2.8392 3.7963 164.2 21.6  0.5  64
2015 01 29  07 31 20.186   +17 10 12.68  2.8418 3.7934 162.7 21.7  0.7  67
2015 01 30  07 29 08.660   +17 12 15.40  2.8448 3.7906 161.2 21.7  1.0  70
2015 01 31  07 26 57.880   +17 14 13.13  2.8483 3.7877 159.7 21.7  1.4  72
2015 02 01  07 24 47.930   +17 16 05.86  2.8524 3.7849 158.2 21.7  1.8  74
2015 02 02  07 22 38.887   +17 17 53.56  2.8569 3.7820 156.7 21.8  2.3  75
2015 02 03  07 20 30.829   +17 19 36.24  2.8619 3.7792 155.2 21.8  2.8  77
2015 02 04  07 18 23.830   +17 21 13.92  2.8674 3.7764 153.7 21.8  3.5  78
2015 02 05  07 16 17.963   +17 22 46.61  2.8734 3.7736 152.2 21.8  4.2  78
2015 02 06  07 14 13.296   +17 24 14.35  2.8798 3.7707 150.7 21.8  5.0  79
2015 02 07  07 12 09.897   +17 25 37.19  2.8867 3.7679 149.2 21.9  6.0  80
2015 02 08  07 10 07.830   +17 26 55.18  2.8940 3.7651 147.7 21.9  7.0  81
2015 02 09  07 08 07.155   +17 28 08.40  2.9018 3.7623 146.3 21.9  8.1  81
2015 02 10  07 06 07.933   +17 29 16.91  2.9100 3.7595 144.8 21.9    9  81
2015 02 11  07 04 10.218   +17 30 20.81  2.9186 3.7566 143.3 21.9   10  82
2015 02 12  07 02 14.063   +17 31 20.18  2.9277 3.7538 141.9 21.9   12  82
2015 02 13  07 00 19.519   +17 32 15.12  2.9372 3.7510 140.4 22.0   13  83
2015 02 14  06 58 26.632   +17 33 05.74  2.9470 3.7482 139.0 22.0   15  83
2015 02 15  06 56 35.446   +17 33 52.14  2.9573 3.7454 137.5 22.0   17  83
2015 02 16  06 54 46.004   +17 34 34.43  2.9679 3.7426 136.1 22.0   18  83
2015 02 17  06 52 58.342   +17 35 12.75  2.9789 3.7399 134.6 22.0   20  84
2015 02 18  06 51 12.498   +17 35 47.20  2.9902 3.7371 133.2 22.1   22  84
2015 02 19  06 49 28.501   +17 36 17.92  3.0019 3.7343 131.8 22.1   25  84
2015 02 20  06 47 46.382   +17 36 45.02  3.0140 3.7315 130.4 22.1   27  84
2015 02 21  06 46 06.165   +17 37 08.65  3.0263 3.7287 129.0 22.1   30  84
2015 02 22  06 44 27.871   +17 37 28.93  3.0390 3.7260 127.6 22.1   32  84
2015 02 23  06 42 51.518   +17 37 46.00  3.0520 3.7232 126.2 22.1   35  84
2015 02 24  06 41 17.119   +17 37 59.98  3.0652 3.7204 124.9 22.2   38  84
2015 02 25  06 39 44.686   +17 38 11.01  3.0788 3.7177 123.5 22.2   41  85
2015 02 26  06 38 14.227   +17 38 19.23  3.0926 3.7149 122.1 22.2   44  85
2015 02 27  06 36 45.746   +17 38 24.76  3.1066 3.7121 120.8 22.2   47  85
2015 02 28  06 35 19.247   +17 38 27.74  3.1209 3.7094 119.4 22.2   50  85
2015 03 01  06 33 54.730   +17 38 28.28  3.1355 3.7066 118.1 22.2   53  85
2015 03 02  06 32 32.194   +17 38 26.51  3.1503 3.7039 116.8 22.2   57  85
2015 03 03  06 31 11.635   +17 38 22.54  3.1653 3.7012 115.5 22.3   60  85
2015 03 04  06 29 53.049   +17 38 16.51  3.1804 3.6984 114.2 22.3   64  85
2015 03 05  06 28 36.427   +17 38 08.51  3.1958 3.6957 112.9 22.3   68  85
2015 03 06  06 27 21.763   +17 37 58.65  3.2114 3.6930 111.6 22.3   72  85
2015 03 07  06 26 09.046   +17 37 47.04  3.2271 3.6902 110.3 22.3   76  85